Location: Indian Hills
(32.9760°N, 85.9450°W)
Time: 11:46:31
(UTC+00:00)

STARLINK-38 - Pass Details

Date: 09 December 2019
Orbit: 529 x 530 km, 53.0° (Epoch: 21 January)

Event Time Altitude Azimuth Distance (km) Brightness Sun altitude
Exits shadow 11:06:16 30° 237° (WSW) 958 4.5 -18.1°
Maximum altitude 11:06:25 30° 233° (SW) 956 4.5 -18.1°
Drops below altitude 10° 11:09:57 10° 171° (S) 1,763 6.5 -17.4°
Sets 11:12:19 0° 160° (SSE) 2,648 7.6 -16.9°
